Weather Roundup
Issued by NWS

Home | Current Version | Previous Version | Text Only | Print | Product List | Glossary On
Versions: 1 2 3 4 5 6 7 8 9 10 11 12 13 14 15 16 17 18 19 20 21 22 23 24 25 26 27 28 29 30 31 32 33 34 35 36 37 38 39 40 41 42 43 44 45 46 47 48 49 50
221
NZUS93 KARX 231510
HRRWXR

CURRENT HOURLY OBSERVATIONS ACROSS
MUCH OF THE UPPER MISSISSIPPI VALLEY
NATIONAL WEATHER SERVICE LA CROSSE WI
1000 AM CDT TUE MAY 23 2017


...SOUTHEAST MINNESOTA...


CITY           SKY/WX    TMP DP  RH WIND       PRES   REMARKS
ROCHESTER      RAIN      50  48  93 NW7       29.81S FOG
ROCHESTER/MAYO NOT AVBL
WINONA         CLOUDY    54  50  87 CALM      29.79S
AUSTIN         PTSUNNY   52  48  87 N5        29.81S
ALBERT LEA     LGT RAIN  52  46  82 NW6       29.82S
DODGE CENTER   LGT RAIN  52  45  76 N7        29.81S
PRESTON        CLOUDY    49  47  92 N5        29.80S
OWATONNA       DRIZZLE   52  46  82 NW6       29.82S
FARIBAULT      LGT RAIN  50  46  87 NW5       29.83S
$$

...ELSEWHERE IN MINNESOTA...


CITY           SKY/WX    TMP DP  RH WIND       PRES   REMARKS
MINNEAPOLIS    CLOUDY    55  45  68 E5        29.83R
INTNL FALLS    CLOUDY    48  44  86 NE6       29.95S
DULUTH         CLOUDY    50  43  77 E10       29.87R
RED WING       DRIZZLE   54  46  76 NE3       29.81R
REDWOOD FALLS  CLOUDY    51  44  77 N9        29.86S
MANKATO        LGT RAIN  50  46  86 N9        29.84S
WORTHINGTON    LGT RAIN  48  45  89 NW12      29.87S
FAIRMONT       CLOUDY    50  45  83 N14       29.85S
$$

...SOUTHWEST WISCONSIN...


CITY           SKY/WX    TMP DP  RH WIND       PRES   REMARKS
LA CROSSE      CLOUDY    56  53  90 N6        29.76F
PRAIRIE DU CHI CLOUDY    55  51  86 SW3       29.77S
BOSCOBEL       CLOUDY    56  53  90 SW5       29.77S
LONE ROCK      CLOUDY    56  53  90 W6        29.77R
PLATTEVILLE    CLOUDY    55  54  98 W6        29.78S
FORT MC COY    CLOUDY    53  51  92 N5        29.77F
CAMP DOUGLAS   CLOUDY    54  54 100 NW5       29.77S
MAUSTON-NEW LI CLOUDY    54  51  90 CALM      29.76S FOG
VIROQUA        CLOUDY    55  52  92 MISG      29.76F
WIS DELLS      CLOUDY    57  52  83 SW6       29.76S
$$

...ELSEWHERE IN WISCONSIN...


CITY           SKY/WX    TMP DP  RH WIND       PRES   REMARKS
MILWAUKEE      CLOUDY    62  54  74 SW8       29.78F
MADISON        CLOUDY    59  53  80 S6        29.76S
GREEN BAY      CLOUDY    54  50  86 NE15      29.80S
EAU CLAIRE     LGT RAIN  50  48  93 NE9       29.81S
BLACK RVR FLS  CLOUDY    55  47  77 E9        29.78S
MEDFORD        RAIN      48  46  93 NE9       29.81F
WAUSAU         CLOUDY    51  44  77 NE7       29.80S
WIS RAPIDS     CLOUDY    54  48  80 E6        29.79S
MARSHFIELD     CLOUDY    51  46  83 NE15      29.78S
RICE LAKE      CLOUDY    51  47  87 N7        29.84S
$$

...NORTHEAST IOWA...


CITY           SKY/WX    TMP DP  RH WIND       PRES   REMARKS
WATERLOO       CLOUDY    56  49  77 N12       29.79F
DUBUQUE        CLOUDY    55  51  86 W7        29.78S
DECORAH        LGT RAIN  50  50 100 W5        29.77F
MASON CITY     CLOUDY    50  45  83 NW9       29.84S
CHARLES CITY   CLOUDY    55  52  88 NW12      29.81S
OELWEIN        CLOUDY    54  52  94 NW10      29.79S
$$

...ELSEWHERE IN IOWA...


CITY           SKY/WX    TMP DP  RH WIND       PRES   REMARKS
DES MOINES     PTSUNNY   59  49  69 NW13      29.84S
IOWA CITY      CLOUDY    58  51  78 NW12      29.81R
FORT DODGE     CLOUDY    52  45  76 N7        29.85S
MARSHALLTOWN   CLOUDY    57  50  77 NW8       29.81S
CEDAR RAPIDS   CLOUDY    54  52  93 NW12      29.79S
$$

...NORTHERN ILLINOIS...


CITY           SKY/WX    TMP DP  RH WIND       PRES   REMARKS
CHICAGO-OHARE  LGT RAIN  59  55  87 SW10      29.81S
CHICAGO-MIDWAY LGT RAIN  59  56  89 W9        29.82F
MOLINE         CLOUDY    59  53  80 W7        29.78S
ROCKFORD       CLOUDY    61  53  75 S10       29.80F
PEORIA         RAIN      57  55  93 SW5       29.81F FOG
$$

NOTE: "FAIR" INDICATES FEW OR NO CLOUDS BELOW 12,000 FEET WITH NO
SIGNIFICANT WEATHER AND/OR OBSTRUCTIONS TO VISIBILITY. WIND
SPEEDS ARE IN MILES-PER-HOUR.




USA.gov is the U.S. government's official web portal to all federal, state and local government web resources and services.